Temp
78 75 74 71 69 69 69 69 69 69 69 70 70 70 68 68 69 70 71 71 71 73 73 73 72 72 71 72 72 71 70 70 67 68 71 71 70 70 72 72 73 71 72
78 74 74 72 71 71 71 69 70 71 71 71 71 70 68 69 70 69 70 71 72 72 72 73 73 75 71 71 71 70 69 70 68 65 67 68 69 71 71 70 74 81 73
77 75 75 73 71 73 73 72 72 72 70 70 70 68 69 69 69 70 70 70 71 72 73 72 72 73 71 71 70 70 70 72 68 68 67 70 70 69 69 70 71 71 78
74 73 72 69 72 73 72 72 72 69 68 70 70 69 69 71 71 71 72 72 72 73 73 73 73 72 72 71 71 70 71 69 69 68 67 68 69 70 70 69 69 72 71
69 69 70 70 70 73 70 67 67 66 67 68 68 68 69 72 75 72 73 72 72 73 74 75 75 75 71 73 72 69 69 69 68 68 69 69 69 69 69 69 68 68 71
67 65 66 66 67 66 65 65 64 65 67 68 68 69 71 75 70 72 73 72 72 72 71 73 74 72 71 71 70 70 68 66 67 67 66 66 66 68 68 68 67 66 64
65 64 64 64 64 64 65 64 64 64 66 68 69 70 69 71 67 69 70 71 72 72 71 71 74 80 72 71 68 68 68 68 67 66 64 65 65 68 69 67 67 66 65
65 65 65 64 64 65 65 66 68 69 67 69 68 70 70 71 65 65 68 71 72 73 73 73 73 73 71 71 70 68 69 70 67 70 66 66 67 68 69 69 68 67 68
67 66 66 66 66 66 66 66 69 69 69 69 71 71 71 68 62 63 65 68 69 71 73 73 73 73 71 68 71 70 70 71 73 68 68 68 68 67 68 68 66 64 64
70 71 70 68 67 66 67 68 70 71 70 73 71 71 70 70 60 60 63 70 69 71 72 73 70 71 68 64 70 69 67 69 71 72 69 67 66 68 66 66 67 64 64
73 72 71 70 68 69 71 69 69 70 71 71 71 71 72 71 65 59 60 69 71 71 73 73 75 65 62 60 63 70 69 70 71 71 71 72 72 72 72 72 69 68 67
74 71 71 70 71 71 70 70 71 71 70 69 70 70 72 72 65 59 58 60 67 69 70 73 69 59 59 59 60 63 61 62 68 69 70 70 71 73 74 73 73 69 71
72 71 71 72 73 71 70 70 70 70 71 70 71 71 71 74 73 61 58 58 60 64 70 68 62 64 59 56 56 58 59 66 66 67 68 70 72 75 72 73 73 70 69
74 73 73 72 72 71 73 73 72 73 71 72 72 73 74 74 73 73 67 64 60 63 66 68 67 65 66 67 67 63 66 69 69 69 69 72 72 71 69 69 68 68 67
75 75 74 75 73 74 74 75 74 74 73 72 74 75 73 71 66 60 68 71 71 67 68 70 70 70 69 70 71 72 73 70 67 68 71 72 70 70 68 69 67 67 66
75 76 76 77 76 76 75 74 66 64 63 58 57 66 74 64 54 51 51 51 54 57 66 69 70 71 69 68 70 72 73 69 67 70 71 72 69 68 67 68 68 66 64
74 76 78 75 77 75 76 75 73 69 57 55 54 51 51 60 53 50 50 51 54 52 67 69 70 71 72 72 73 74 72 72 71 73 71 70 70 69 67 66 65 64 63
76 66 78 77 79 78 76 78 78 75 74 73 58 56 53 49 47 50 50 50 63 58 67 69 70 71 72 72 73 73 67 65 73 72 71 70 69 67 66 65 64 63 62
77 78 79 79 78 73 74 78 76 76 73 74 72 64 58 48 48 47 45 65 69 70 72 71 70 71 72 73 73 68 67 64 66 71 70 69 68 68 65 65 65 59 61
76 72 71 80 80 79 80 79 79 73 73 72 72 72 77 65 65 67 61 64 67 69 72 73 74 74 73 71 66 62 67 69 71 70 68 68 68 67 66 65 65 65 64
80 79 73 79 79 80 81 77 79 77 73 76 74 73 62 69 69 69 68 68 68 69 72 73 76 76 75 75 73 67 66 66 70 71 71 69 68 67 66 67 67 66 65
82 82 81 78 78 78 81 81 80 74 74 71 65 68 55 64 72 74 75 73 71 71 74 75 75 77 78 76 71 72 75 74 74 73 71 71 69 68 68 67 67 66 65
86 83 79 82 80 75 80 80 80 76 76 72 73 76 74 72 72 74 74 78 75 76 78 78 80 67 62 64 65 64 68 74 74 74 72 71 70 69 69 67 66 65 62
87 86 86 86 78 84 80 81 82 70 78 76 72 70 70 71 75 76 75 78 82 81 79 78 74 70 66 66 69 68 71 75 75 74 73 71 70 67 69 67 65 60 57
85 85 85 85 83 72 74 82 80 79 75 72 70 73 74 76 78 79 79 77 76 69 71 67 70 71 66 63 64 64 61 49 67 64 71 71 69 69 68 64 59 54 53
85 84 83 84 74 67 71 80 84 82 78 73 73 75 76 76 80 78 71 67 77 73 72 73 71 69 66 66 65 51 42 39 47 41 58 60 60 57 53 52 53 51 52
MSLP
1009.15 1010.10 1011.10 1011.68 1011.85 1012.21 1013.43 1014.25 1014.67 1015.40 1015.11 1015.68 1015.88 1015.97 1016.27 1016.32 1016.78 1016.93 1017.00 1017.14 1017.05 1017.24 1017.18 1017.33 1017.38 1017.51 1017.68 1017.72 1017.69 1017.93 1018.16 1018.34 1018.57 1018.87 1019.06 1019.16 1019.39 1019.50 1019.69 1019.63 1019.46 1019.66 1019.51
1008.81 1009.73 1010.67 1011.64 1011.74 1012.67 1013.50 1013.47 1014.22 1014.68 1015.38 1016.03 1016.34 1015.92 1016.32 1016.57 1016.91 1016.70 1016.97 1016.98 1016.96 1017.00 1017.30 1017.48 1017.45 1017.49 1017.78 1017.82 1018.06 1018.32 1018.48 1018.33 1018.81 1018.97 1019.06 1019.33 1019.39 1019.29 1019.36 1019.46 1019.15 1018.80 1018.95
1008.14 1009.34 1010.42 1011.53 1012.15 1012.24 1012.81 1013.12 1013.55 1014.17 1014.91 1015.64 1016.34 1016.25 1015.99 1016.42 1016.52 1017.00 1017.00 1016.97 1016.97 1017.04 1017.32 1017.44 1017.46 1017.44 1017.67 1018.00 1018.41 1018.55 1018.44 1018.36 1018.67 1018.84 1018.95 1018.79 1019.00 1018.93 1019.19 1019.18 1018.79 1018.65 1018.40
1008.97 1009.49 1009.66 1010.85 1011.34 1011.80 1012.52 1012.86 1013.55 1013.99 1014.66 1015.28 1015.78 1015.99 1016.18 1016.25 1016.40 1016.81 1016.66 1016.61 1016.85 1016.85 1016.92 1017.24 1017.40 1017.59 1017.82 1018.13 1018.46 1018.57 1018.47 1018.54 1018.63 1018.71 1018.74 1018.62 1018.53 1018.57 1018.73 1018.65 1018.72 1018.38 1018.07
1008.76 1006.26 1009.79 1010.60 1010.94 1011.52 1012.27 1012.92 1013.33 1013.74 1014.27 1014.77 1015.46 1015.79 1015.87 1015.86 1016.08 1016.16 1016.46 1016.55 1016.63 1016.60 1016.80 1017.13 1017.30 1017.63 1017.88 1018.07 1018.25 1018.65 1018.70 1018.73 1018.72 1018.79 1018.77 1018.24 1018.25 1018.54 1018.51 1018.44 1018.36 1018.21 1017.85
1009.84 1009.68 1010.16 1011.00 1011.42 1012.18 1012.62 1013.06 1013.60 1013.89 1014.33 1014.81 1014.91 1015.30 1015.17 1015.37 1015.54 1015.96 1016.33 1016.44 1016.54 1016.51 1016.80 1016.97 1017.26 1017.61 1017.80 1018.05 1018.16 1018.57 1018.76 1018.95 1018.90 1018.89 1018.84 1018.90 1018.77 1018.48 1018.57 1018.46 1018.32 1018.55 1018.56
1010.45 1010.75 1010.04 1011.64 1012.22 1012.65 1013.00 1013.28 1013.47 1014.02 1014.25 1014.60 1014.46 1014.83 1014.91 1015.15 1015.42 1015.73 1016.03 1016.23 1016.38 1016.58 1016.79 1016.94 1017.12 1017.09 1017.26 1017.62 1017.98 1018.22 1018.40 1018.54 1018.71 1018.89 1019.00 1018.82 1018.80 1018.49 1018.55 1018.36 1018.47 1018.79 1018.76
1010.80 1010.58 1010.84 1011.72 1012.27 1012.95 1012.91 1013.29 1013.09 1013.55 1013.70 1014.05 1014.05 1014.45 1014.55 1015.10 1015.41 1015.82 1016.00 1016.25 1016.22 1016.25 1016.52 1016.59 1016.69 1016.73 1017.01 1017.26 1017.54 1017.86 1018.04 1017.97 1017.98 1018.11 1018.24 1018.18 1018.12 1018.07 1018.19 1018.16 1018.35 1018.41 1018.30
1010.63 1010.92 1011.28 1011.75 1011.94 1012.50 1012.66 1012.92 1013.05 1013.13 1013.47 1013.73 1013.72 1014.07 1014.55 1015.11 1015.52 1015.87 1016.06 1016.43 1016.30 1016.17 1016.17 1016.31 1016.26 1016.42 1016.66 1016.87 1017.10 1017.39 1017.38 1017.09 1016.60 1017.02 1017.03 1017.14 1017.34 1017.43 1017.62 1018.02 1018.04 1018.12 1017.91
1010.35 1010.71 1011.16 1011.50 1011.65 1012.15 1012.44 1012.59 1012.79 1012.91 1013.14 1013.28 1013.38 1014.03 1014.56 1014.79 1015.35 1015.68 1016.00 1016.10 1016.04 1015.91 1015.81 1015.81 1015.79 1015.89 1016.11 1016.38 1016.68 1016.86 1016.96 1016.81 1016.59 1016.53 1016.98 1016.95 1016.96 1016.90 1017.01 1017.35 1017.35 1017.62 1017.53
1009.93 1010.39 1010.85 1011.24 1011.64 1011.72 1011.83 1012.39 1012.60 1012.65 1012.73 1012.96 1013.26 1013.69 1014.04 1014.36 1014.88 1015.22 1015.52 1015.71 1015.66 1015.47 1015.24 1014.94 1015.03 1015.11 1015.33 1015.66 1016.00 1016.20 1016.29 1016.35 1016.39 1016.36 1016.22 1016.10 1016.09 1016.12 1015.99 1015.97 1016.16 1016.64 1016.76
1009.62 1009.98 1010.39 1010.75 1011.07 1011.44 1011.73 1012.03 1012.25 1012.39 1012.54 1012.80 1013.18 1013.44 1013.55 1013.76 1014.15 1014.60 1014.92 1015.25 1015.24 1015.14 1014.95 1014.71 1014.70 1014.58 1014.59 1014.86 1015.48 1015.76 1015.84 1016.09 1016.30 1016.22 1016.05 1015.80 1015.64 1015.35 1015.03 1014.93 1014.87 1015.27 1015.50
1009.35 1009.59 1009.92 1010.30 1010.63 1011.08 1011.54 1011.81 1012.09 1012.29 1012.36 1012.60 1012.78 1012.86 1012.80 1012.75 1013.25 1013.57 1013.94 1014.29 1014.53 1014.75 1014.54 1014.45 1014.45 1014.45 1014.64 1015.00 1015.19 1015.23 1015.45 1015.69 1015.72 1015.71 1015.44 1015.22 1014.90 1014.51 1014.17 1014.00 1014.01 1014.30 1014.48
1008.84 1009.26 1009.62 1010.01 1010.33 1010.79 1011.11 1011.39 1011.54 1011.57 1011.78 1011.91 1011.79 1011.74 1011.72 1011.61 1011.89 1012.23 1013.00 1013.49 1013.77 1014.10 1014.01 1013.99 1014.04 1014.19 1014.39 1014.37 1014.39 1014.35 1014.55 1014.52 1014.64 1014.66 1014.52 1014.19 1013.79 1013.79 1013.94 1013.93 1014.15 1014.21 1014.43
1008.47 1008.93 1009.29 1009.57 1009.89 1010.05 1010.23 1010.27 1010.51 1010.48 1010.62 1010.79 1010.79 1010.75 1010.82 1010.99 1011.78 1011.57 1011.78 1012.33 1012.77 1013.10 1013.28 1013.34 1013.17 1013.04 1013.10 1013.25 1013.20 1013.11 1013.16 1013.45 1013.88 1013.74 1013.52 1013.32 1013.25 1013.24 1013.39 1013.42 1013.57 1013.79 1013.94
1008.03 1008.34 1008.51 1008.47 1008.74 1009.02 1009.28 1009.43 1009.49 1009.73 1009.92 1010.07 1010.17 1010.41 1010.65 1011.17 1011.49 1011.85 1011.85 1012.07 1012.17 1012.14 1012.31 1012.29 1012.20 1012.24 1012.41 1012.38 1012.39 1012.16 1011.90 1012.06 1012.56 1012.35 1012.53 1012.62 1012.57 1012.66 1012.78 1012.93 1012.97 1013.18 1013.44
1007.40 1007.45 1007.55 1007.62 1007.30 1007.85 1008.01 1008.43 1008.68 1008.91 1008.96 1009.37 1009.63 1009.98 1010.19 1010.36 1010.84 1011.29 1011.64 1011.86 1011.87 1011.99 1011.92 1011.52 1011.40 1011.42 1011.41 1011.31 1011.13 1010.87 1010.67 1010.77 1010.73 1010.66 1010.84 1011.26 1011.73 1011.93 1012.07 1012.17 1012.37 1012.65 1012.94
1006.73 1006.80 1006.71 1006.64 1006.75 1006.69 1006.91 1007.18 1007.64 1008.07 1008.55 1008.95 1009.04 1009.39 1009.56 1009.86 1010.41 1010.68 1010.87 1011.27 1011.83 1011.75 1011.14 1010.85 1010.61 1010.57 1010.53 1010.47 1010.28 1010.01 1009.95 1010.03 1009.48 1010.05 1010.29 1010.20 1010.59 1011.04 1011.38 1011.50 1011.70 1012.05 1012.33
1006.12 1006.32 1006.28 1006.27 1006.27 1006.26 1006.33 1006.43 1006.76 1007.11 1007.63 1008.01 1008.09 1008.25 1008.51 1009.20 1009.86 1010.60 1010.94 1010.66 1010.11 1009.78 1009.56 1009.34 1009.30 1009.36 1009.40 1009.32 1008.88 1008.87 1009.58 1009.29 1009.67 1009.07 1009.51 1009.33 1009.86 1010.36 1010.64 1010.82 1011.01 1011.27 1011.56
1005.11 1005.48 1005.72 1005.69 1005.59 1005.65 1005.68 1005.81 1005.85 1006.38 1006.83 1007.13 1007.09 1007.22 1007.24 1008.14 1009.16 1009.45 1009.60 1009.25 1008.90 1008.44 1008.21 1008.24 1008.07 1007.87 1007.88 1007.94 1008.02 1007.92 1007.75 1008.69 1008.46 1007.97 1007.88 1008.05 1008.86 1009.48 1009.88 1010.06 1010.13 1010.34 1010.41
1004.01 1004.68 1004.95 1005.00 1004.71 1004.53 1004.45 1004.59 1004.80 1005.21 1005.59 1005.79 1006.06 1006.56 1006.23 1007.27 1007.55 1007.36 1007.62 1007.63 1007.27 1007.13 1007.02 1007.17 1006.81 1006.50 1006.58 1006.70 1006.78 1007.26 1007.12 1007.60 1007.77 1006.75 1006.55 1007.10 1007.60 1008.28 1008.78 1009.03 1009.12 1009.14 1009.37
1002.49 1002.54 1002.84 1003.15 1003.44 1003.59 1003.43 1003.59 1003.70 1004.06 1005.00 1004.81 1005.23 1005.52 1005.78 1005.91 1006.36 1005.81 1005.76 1005.87 1005.59 1005.24 1005.09 1005.44 1005.55 1005.21 1005.02 1005.07 1005.12 1005.04 1005.20 1005.33 1005.37 1005.56 1005.83 1006.12 1006.55 1006.97 1007.53 1007.82 1007.95 1008.20 1008.49
1001.17 1001.28 1001.49 1001.46 1001.77 1002.21 1002.22 1002.46 1002.55 1003.10 1003.34 1003.76 1004.18 1004.23 1004.17 1004.22 1004.58 1004.24 1004.06 1003.82 1004.05 1004.20 1003.94 1004.13 1004.01 1004.37 1004.38 1004.54 1005.02 1005.54 1005.18 1004.86 1004.34 1004.61 1004.80 1004.93 1005.10 1005.49 1006.06 1006.55 1007.02 1007.44 1007.80
1000.49 1000.22 1000.08 1000.05 1000.50 1000.90 1001.34 1001.34 1001.27 1001.56 1001.90 1002.33 1003.07 1003.00 1003.29 1003.42 1002.83 1002.95 1002.99 1002.86 1002.27 1002.06 1002.24 1002.32 1002.65 1003.55 1003.04 1002.78 1003.31 1003.22 1003.09 1003.28 1002.73 1003.09 1003.43 1003.94 1004.03 1004.24 1004.68 1005.40 1006.02 1006.67 1007.40
1000.09 999.94 999.73 999.82 1000.08 1000.93 1001.16 1000.08 999.95 1000.02 1000.67 1001.16 1001.58 1001.48 1001.53 1001.79 1001.61 1001.33 1001.10 1001.12 1001.28 1001.07 1002.14 1001.89 1001.91 1001.44 1002.66 1002.90 1004.08 1003.16 1002.08 1002.39 1000.76 1001.14 1002.38 1002.49 1002.72 1002.52 1002.81 1003.70 1005.04 1006.30 1006.96
999.57 998.99 999.04 999.35 999.95 1000.11 1000.73 999.80 998.85 998.77 999.04 999.82 999.95 1000.17 999.94 1000.34 1000.03 999.74 999.96 1000.21 1000.10 1000.96 1001.40 1001.18 1001.24 1001.48 1002.47 1002.28 1001.98 1000.73 1002.26 1000.65 999.86 1000.80 1001.53 1002.60 1002.59 1002.86 1003.99 1004.69 1005.14 1005.97 1006.67
Wind_Speed
11 11 13 14 16 16 9 4 4 3 5 7 8 8 6 5 6 4 3 4 2 1 2 3 4 5 4 4 4 4 3 3 2 2 3 3 2 1 4 4 5 6 5
12 12 15 15 15 8 7 8 9 8 6 7 5 4 6 4 3 3 4 5 4 2 1 2 2 3 2 3 3 1 2 2 2 2 2 3 4 5 4 4 5 6 6
15 16 15 13 9 9 9 9 8 8 7 7 6 8 6 6 6 5 5 5 5 5 4 3 3 3 1 2 2 1 1 1 2 1 1 2 3 3 5 6 5 6 6
10 13 14 13 11 7 8 7 7 7 8 8 6 6 6 7 8 8 6 5 5 5 4 4 4 3 1 1 2 3 2 1 1 2 4 4 5 5 4 3 3 5 5
6 10 10 8 7 8 9 8 8 9 7 7 7 7 8 7 7 6 6 5 5 5 5 4 5 6 4 2 1 4 5 2 2 2 4 3 0 3 3 3 1 2 2
3 6 7 5 6 6 7 7 6 6 7 8 10 7 7 6 8 9 5 5 5 4 4 4 2 8 7 8 6 3 1 2 4 3 3 3 5 4 3 2 2 3 4
4 6 8 5 5 4 6 7 8 8 7 8 7 7 7 6 12 11 7 3 7 5 6 5 6 9 11 6 7 8 7 8 8 2 4 4 2 3 4 2 2 1 3
4 4 7 5 7 7 8 9 8 7 7 7 5 7 6 6 8 7 7 3 3 5 6 7 5 2 6 7 8 7 8 9 10 8 8 8 6 6 4 3 4 4 5
6 6 7 8 8 7 7 7 8 7 7 6 6 5 5 7 10 9 7 5 5 5 5 6 6 7 9 10 5 5 5 5 6 16 15 15 14 10 6 2 5 3 5
9 8 9 8 8 8 8 7 5 6 6 7 7 6 8 7 12 13 10 5 6 7 9 9 14 9 7 12 7 6 5 6 6 6 9 8 9 10 13 7 5 6 6
6 9 9 9 8 9 7 6 5 6 6 5 8 8 9 7 10 12 13 7 7 6 8 8 9 18 14 12 10 6 7 5 6 4 5 4 7 8 8 8 9 8 8
8 8 9 7 6 6 7 6 5 5 4 6 4 5 6 7 11 17 17 16 11 8 6 6 3 1 12 16 10 11 12 5 4 5 6 7 6 7 9 8 10 9 9
10 9 9 9 6 8 6 6 6 6 6 7 7 8 8 9 10 17 20 19 19 8 7 3 5 8 0 4 10 11 7 5 6 6 8 8 8 7 5 3 4 8 6
8 8 8 8 7 10 8 8 8 8 8 8 8 8 9 8 12 10 11 11 15 10 10 9 9 8 8 8 7 9 8 8 8 8 9 9 6 3 1 2 1 2 2
9 8 8 8 9 8 8 8 9 10 7 6 8 7 4 2 3 3 11 10 10 11 9 7 6 6 6 7 8 9 9 8 8 9 10 9 6 4 3 3 3 4 4
9 9 9 9 11 9 10 8 12 11 11 10 8 6 3 7 10 8 10 10 6 10 4 7 8 8 8 6 9 10 11 8 9 11 10 9 5 5 5 5 5 4 4
10 10 9 10 7 10 10 11 9 10 12 11 12 10 11 6 13 15 12 9 7 6 4 6 6 7 6 6 7 9 8 7 15 10 7 6 6 5 5 4 4 3 4
12 12 7 6 8 5 6 8 7 7 7 8 11 14 13 14 14 8 11 8 5 5 5 7 7 8 9 10 11 11 5 5 8 5 5 5 5 4 4 4 4 4 4
11 9 8 8 7 4 4 5 7 8 5 4 6 9 15 2 9 10 9 6 8 9 9 9 9 10 11 11 12 4 2 3 13 5 5 5 5 5 5 5 5 6 6
12 14 10 9 9 9 8 8 8 8 7 7 6 7 4 7 7 9 8 9 10 11 11 12 11 10 11 12 9 6 7 9 10 8 6 5 4 4 6 6 6 9 7
10 11 14 12 12 11 10 9 9 7 8 6 7 6 10 5 9 9 10 11 11 12 12 12 12 12 11 10 10 10 10 9 13 8 7 8 8 8 9 9 10 8 5
12 13 14 14 13 12 11 10 6 7 7 4 5 9 15 6 9 9 11 13 12 13 12 13 11 12 11 8 11 12 13 13 11 9 10 10 10 11 11 10 8 8 7
10 12 12 12 15 16 11 9 10 8 10 8 9 13 10 10 11 11 13 13 14 12 12 13 13 3 6 4 6 6 11 16 13 12 13 12 11 11 10 10 9 8 7
11 10 10 9 4 10 12 13 14 14 13 10 11 9 10 11 12 15 13 14 16 12 11 8 5 9 6 7 12 13 12 21 14 13 16 12 12 11 11 10 7 7 6
9 10 11 8 7 5 12 14 10 11 14 11 10 11 12 14 15 17 17 5 5 4 7 6 8 12 11 8 16 14 25 22 19 15 12 13 13 15 11 10 10 8 8
15 12 9 9 5 6 14 16 9 9 10 11 12 14 13 14 14 8 6 6 8 9 9 8 6 6 3 17 20 11 10 8 8 8 0 2 3 7 8 8 9 5 4
Wind_Direction
172 166 164 163 152 186 189 137 134 171 197 199 197 174 177 176 198 199 196 186 159 125 45 76 61 49 40 21 54 43 46 46 67 101 120 138 114 123 178 207 230 221 213
174 161 167 172 176 174 167 149 165 179 188 194 182 157 167 183 184 180 200 171 175 125 195 137 124 109 61 42 78 98 98 82 90 167 144 177 170 184 203 219 252 279 173
173 170 173 181 191 190 185 183 167 169 166 164 176 184 172 178 174 208 208 171 196 178 204 180 198 125 147 354 83 354 46 344 177 50 265 181 181 177 212 237 225 241 252
193 174 179 182 190 170 171 188 176 159 149 159 179 182 188 195 180 205 203 184 190 179 174 188 142 147 186 283 349 293 253 263 220 237 255 228 196 189 194 217 240 229 256
121 182 186 188 168 161 145 141 141 140 146 162 186 196 206 200 200 193 183 189 191 176 184 199 180 192 101 107 310 12 4 276 286 268 259 239 343 131 185 231 31 2 315
75 103 111 146 135 151 141 135 136 151 170 187 192 190 178 196 189 170 182 184 192 193 201 206 127 155 176 191 170 205 218 317 328 334 319 14 34 343 55 33 14 31 332
101 143 108 99 113 140 141 152 162 183 186 199 180 178 190 210 169 164 147 266 179 202 198 201 218 216 194 176 213 216 230 231 225 240 283 284 309 298 334 351 352 35 265
161 123 121 161 161 182 173 186 176 166 171 185 174 196 190 161 152 162 152 264 286 206 211 202 221 260 173 190 192 199 214 221 218 213 213 240 245 257 256 258 247 240 253
140 138 156 156 164 164 180 176 189 174 175 184 169 176 203 144 172 168 160 209 245 250 237 234 221 213 220 201 206 227 245 265 226 208 214 214 224 235 219 238 253 268 276
173 172 167 164 158 176 179 191 176 180 182 182 165 180 208 177 182 175 181 217 224 232 229 225 215 213 200 184 191 203 228 241 250 283 231 255 250 245 236 206 239 239 249
149 167 170 166 175 186 192 167 201 183 175 203 180 190 206 195 181 188 193 208 245 249 241 215 209 209 209 187 199 202 220 232 264 284 264 228 226 238 240 219 217 221 239
164 165 176 172 182 169 169 167 178 203 210 186 200 209 206 198 191 199 200 210 230 255 274 287 50 55 230 194 186 225 231 241 265 270 276 278 269 251 245 223 225 209 221
170 179 178 169 198 153 166 179 197 205 219 197 200 212 224 210 206 190 202 210 226 234 249 243 343 351 263 180 224 240 218 210 224 239 244 249 251 260 266 219 201 207 215
171 170 169 174 201 170 185 196 212 198 201 229 220 217 225 222 197 196 203 209 223 217 238 247 243 218 205 227 242 224 221 220 220 231 238 241 235 253 202 157 217 251 202
181 182 185 194 191 197 213 204 204 223 222 222 217 217 246 298 95 89 200 193 198 206 210 227 241 246 240 232 233 236 235 219 215 229 238 243 232 219 218 218 216 225 225
189 195 199 204 186 208 197 217 227 225 240 220 212 200 244 149 141 108 96 101 105 150 167 216 228 235 236 237 254 244 235 205 206 223 230 232 223 221 222 233 233 218 232
208 203 211 219 206 199 209 196 215 222 220 222 236 226 229 214 165 151 157 153 150 121 225 227 231 247 259 256 248 244 232 206 212 207 196 208 209 218 203 211 210 217 247
217 237 241 229 225 242 206 203 209 216 216 231 236 233 235 231 209 190 153 152 183 212 226 241 242 238 244 250 259 259 228 230 225 192 205 193 202 216 224 220 212 226 228
208 229 238 247 266 245 264 224 209 217 216 237 218 234 227 165 113 162 173 232 233 232 236 231 229 236 242 246 251 265 192 187 238 212 204 184 199 210 220 215 224 235 242
214 219 234 249 231 247 252 256 223 203 208 229 235 245 214 176 216 225 218 226 233 235 234 240 245 244 228 229 229 227 234 239 217 184 184 178 199 212 225 219 216 233 223
197 218 229 244 243 242 227 221 225 230 244 223 237 295 250 175 216 214 220 221 214 222 237 245 241 239 238 242 226 225 226 207 251 214 201 202 199 217 226 227 230 224 224
199 212 214 217 228 235 233 236 231 210 226 199 203 213 245 249 248 239 227 221 221 222 223 237 241 236 234 231 210 220 230 230 225 220 213 208 209 212 217 220 221 223 219
235 217 222 222 211 220 225 222 226 231 232 226 227 255 258 244 246 244 240 236 226 233 229 227 240 173 172 155 312 270 246 257 233 226 224 218 212 215 217 217 219 222 209
259 273 272 260 232 222 222 229 226 217 226 223 223 238 248 253 242 244 248 250 246 234 232 233 266 278 235 214 234 240 234 238 228 222 221 223 220 211 209 212 204 135 128
246 244 253 266 287 356 328 267 242 213 207 204 201 228 240 236 249 242 231 232 315 169 190 199 225 205 204 251 264 266 268 268 214 205 225 227 228 222 204 180 151 144 142
263 240 234 242 186 166 248 267 271 275 195 206 207 227 232 240 243 221 186 189 233 258 249 262 310 14 49 230 234 192 180 239 311 309 307 3 251 120 122 117 113 115 114